User: anonymous
Location: Unspecified
(0.0000°N, 0.0000°E)
Time: 18:05:51
(UTC+00:00)
Language:

SWISSCUBE - Orbit

View from above orbital plane
View from above orbital plane
View from above satellite
View from above satellite

Ground track
Ground track

The orbit data is extracted from the following two-line orbital elements,

1 35932U 09051B   14203.82619346  .00000237  00000-0  66396-4 0  3581
2 35932 098.3825 316.1926 0006712 268.8983 091.1444 14.54492665256076
Epoch (UTC): 22 July 2014 19:49:43
Eccentricity: 0.0006712
inclination: 98.3825°
perigee height: 706 km
apogee height: 716 km
right ascension of ascending node: 316.1926°
argument of perigee: 268.8983°
revolutions per day: 14.54492665
mean anomaly at epoch: 91.1444°
orbit number at epoch: 25607

The dashed part of the orbit path shows where the satellite is in the earth's shadow,  

DLR